sat.trackr.live / text

‹ back to catalog

STARLINK-11412 [DTC]

NORAD 63062 · 2025-035L

PAYLOAD ACTIVE UNKNOWN

§ Identity

Operator
Country
US
Launch date
2025-02-21
Launch site
AFETR
Launch vehicle
Mass (kg)
RCS (m²)

Purposes: comms

External: N2YO · Heavens-Above · Gunter

§ Orbital elements

Epoch: 2026-09-21T02:22:45.586272Z

Period
91.67 min
Inclination
42.9979°
Eccentricity
0.0001704
Mean motion
15.70837354 rev/d
Perigee alt
355.4 km
Apogee alt
357.7 km
Semi-major
6,734.6 km
B*
9.7333e-4
RAAN
277.4797°
Arg perigee
185.9691°
Mean anomaly
174.1157°
Rev number
9,195

§ Raw data

STARLINK-11412 [DTC]1 63062U 25035L   26264.09913873  .00126345  00000+0  97333-3 0  99902 63062  42.9979 277.4797 0001704 185.9691 174.1157 15.70837354 91956

JSON: /api/v1/satellites/63062 · /tle

For live sub-satellite position, see the globe view (requires WebGL).

§ Visibility from observer

Set your observer location to see the next 7 days of passes ≥ 10°. The values pass through the URL so the page stays shareable.

No JS? Fill the form by hand. The geolocation button needs JavaScript.